Location: Bagnolo San Vito
(45.0833°N, 10.8833°E)
Time: 22:37:17
(UTC+00:00)

SME Rocket - Pass Details

Date: 03 March 2021
Orbit: 550 x 2652 km, 99.9° (Epoch: 17 April)

Event Time Altitude Azimuth Distance (km) Brightness Sun altitude
Rises 19:07:04 0° 15° (NNE) 4,980 7.7 -21.9°
Reaches altitude 10° 19:10:35 10° 16° (NNE) 3,669 7.0 -22.5°
Maximum altitude 19:18:47 87° 105° (ESE) 1,062 4.0 -23.9°
Drops below altitude 10° 19:24:01 10° 196° (SSW) 2,390 6.0 -24.8°
Sets 19:25:55 0° 197° (SSW) 3,157 6.7 -25.1°
